Hourly Data Report for June 24, 2021

TRENTON A
ONTARIO
Current Station Operator: DND

44°07'08.000" N
77°31'41.000" W
86.30 m
6158875
71621
YTR

Download Data

Hourly Data (June 2021)
Hourly Data Report for June 24, 2021
TIME
LST
Temp Definition
°C
Dew Point Definition
°C
Rel Hum Definition
%
Precip. Amount Definition
mm

Wind Dir Definition
10's deg

Wind Spd Definition
km/h
Visibility Definition
km
Stn Press Definition
kPa
Hmdx Definition


Wind Chill Definition


Weather Definition


00:00 16.3 10.6 69   18 9 24.1 101.28     Mainly Clear
01:00 15.8 11.4 75   20 8 24.1 101.28     Mainly Clear
02:00 15.4 12.2 81   20 8 24.1 101.29     Mainly Clear
03:00 15.8 12.3 80   20 5 24.1 101.29     Mainly Clear
04:00 15.4 11.6 78   21 5 24.1 101.29     Mainly Clear
05:00 14.9 11.9 82   19 5 24.1 101.32     Mainly Clear
06:00 16.5 12.6 78   18 9 24.1 101.32     Mainly Clear
07:00 17.8 12.6 72   20 11 24.1 101.31     Mainly Clear
08:00 19.3 12.0 63   21 13 24.1 101.36     Mainly Clear
09:00 19.3 11.9 62   25 15 24.1 101.38     Mostly Cloudy
10:00 20.5 12.1 59   23 11 24.1 101.36     Mostly Cloudy
11:00 24.7 11.4 43   22 21 24.1 101.26 27   Mainly Clear
12:00 26.6 11.5 39   18 30 24.1 101.20 29   Mainly Clear
13:00 26.1 11.0 39   17 18 24.1 101.20 28   Mostly Cloudy
14:00 27.2 10.8 36   19 18 24.1 101.17 29   Cloudy
15:00 26.8 10.3 36   17 17 24.1 101.07 28   Cloudy
16:00 27.2 10.5 35   17 15 24.1 101.05 29   Cloudy
17:00 26.3 10.7 38   16 18 24.1 100.99 28   Cloudy
18:00 25.1 10.9 41   17 15 24.1 100.98 27   Cloudy
19:00 24.2 10.8 43   17 15 24.1 101.01 26   Cloudy
20:00 23.2 11.1 46   17 9 24.1 101.01 25   Cloudy
21:00                      
22:00                      
23:00                      

Notes on Data Quality.

Legend

  • E = Estimated
  • M = Missing
  • NA = Not Available*
  • [empty] = Indicates an unobserved value
Date modified: